RH
69 77 73 76 74 90 96 89 83 67 46 36 31 39 45 38 45 78 37 25 29 33 35 42 44 45 49 51 54 54 53 64 63 62 62 64 62 67 66 63 62 64 64 65 65 62 63 61 61
69 66 68 75 79 80 88 85 64 59 38 32 28 31 29 30 28 25 22 28 32 35 41 43 45 48 51 54 55 56 54 59 58 55 61 61 56 62 61 59 65 61 62 63 60 64 65 63 66
63 47 62 64 77 88 91 71 55 44 36 36 27 25 26 29 22 22 29 33 36 41 46 45 47 50 52 53 53 55 55 54 55 55 58 56 57 58 59 60 57 62 60 65 65 63 69 64 63
52 54 47 64 75 66 84 56 46 34 30 24 25 26 22 25 25 30 34 33 40 45 49 49 48 50 51 51 52 54 57 57 56 56 57 58 60 62 59 64 64 66 62 66 66 65 65 67 67
58 53 59 63 63 51 46 37 41 29 24 22 26 26 24 25 28 31 34 36 43 50 51 49 47 49 50 51 55 58 57 56 56 56 57 58 59 60 62 60 62 64 65 67 66 66 65 66 70
62 53 62 69 54 39 33 30 25 24 24 23 22 24 29 29 31 34 37 44 46 51 50 49 49 49 49 51 55 56 58 58 59 60 61 62 64 63 63 64 60 62 65 65 65 66 68 67 65
63 64 68 63 48 42 30 25 25 24 24 23 21 25 26 26 30 37 41 45 49 50 48 50 52 51 54 52 56 56 58 60 62 63 62 64 64 64 67 66 66 61 60 62 65 70 65 69 67
68 54 57 59 49 48 28 22 23 22 25 21 22 27 30 26 29 37 39 41 47 49 50 52 52 52 54 55 59 58 59 62 64 63 62 65 71 72 74 70 67 65 64 64 63 68 69 65 70
61 68 73 56 47 41 24 22 23 23 21 22 23 24 24 24 33 39 41 40 45 42 52 53 53 54 56 52 57 72 66 64 65 67 69 78 79 78 77 71 68 67 68 66 66 64 68 70 75
59 70 60 44 42 30 27 24 22 23 25 25 23 20 24 35 46 43 43 46 48 48 51 55 55 57 59 47 68 74 69 77 76 75 80 83 80 75 63 74 71 69 70 72 72 71 71 76 78
48 53 42 36 30 25 26 28 26 26 32 25 24 22 22 44 46 44 46 48 52 54 53 54 56 58 63 65 73 78 80 84 83 80 83 85 76 84 87 93 90 87 74 85 82 79 80 84 85
43 35 36 35 30 26 27 25 28 29 31 22 23 20 25 46 50 49 46 50 55 51 52 53 58 60 63 69 74 77 77 83 84 84 80 86 87 85 89 91 91 94 87 94 93 84 85 94 84
36 34 28 30 27 27 24 28 26 25 24 22 18 21 32 45 50 49 46 50 53 53 53 56 58 63 62 67 73 76 79 86 85 84 82 82 82 82 86 85 88 89 88 94 92 92 83 76 56
36 29 28 26 25 24 24 27 27 22 22 18 16 26 43 47 50 47 45 53 62 54 54 57 58 62 63 68 71 77 79 82 82 83 83 80 80 82 81 82 82 88 90 92 89 94 90 84 83
29 30 30 29 27 29 24 32 28 22 19 17 18 36 48 51 46 60 51 59 69 61 58 57 54 60 64 70 72 77 80 75 82 81 80 80 78 79 79 80 84 88 89 90 89 93 89 85 81
33 38 44 36 28 29 33 40 29 23 17 17 18 37 47 52 49 59 54 56 68 66 61 60 53 61 64 69 74 74 78 83 85 84 85 78 75 74 79 82 86 82 87 92 95 91 87 79 82
45 47 50 42 29 29 37 41 32 23 21 17 19 26 51 58 52 58 57 59 58 62 63 61 62 64 66 69 74 77 78 83 84 87 84 79 76 74 80 82 81 73 84 86 91 82 88 86 87
38 56 46 48 36 33 39 40 37 24 25 18 20 24 45 54 54 55 57 58 58 60 63 64 64 66 69 74 75 78 80 81 82 83 82 78 79 78 84 73 75 74 84 89 90 93 86 96 95
30 33 33 41 38 35 40 40 38 27 27 23 22 24 35 51 62 54 59 60 61 59 62 66 67 69 74 81 86 90 90 87 79 80 76 80 80 78 81 72 76 85 90 92 93 93 93 96 85
32 36 35 36 40 36 47 42 43 31 27 27 22 24 29 57 68 66 63 69 64 67 66 65 66 69 73 82 87 92 93 87 86 83 78 78 77 80 72 72 90 89 94 92 91 93 95 92 94
28 30 27 24 36 41 38 45 41 32 31 27 25 25 29 46 59 59 68 74 65 67 68 64 67 70 73 80 84 83 82 82 83 77 80 78 80 80 72 81 87 92 95 96 95 95 95 97 93
22 27 31 34 37 37 38 35 55 38 32 26 27 27 29 49 65 58 64 72 69 64 65 65 66 70 67 80 85 88 92 92 89 91 88 82 81 82 79 81 89 94 92 94 96 90 97 98 98
23 31 38 41 45 56 45 44 51 41 35 34 26 28 29 46 63 60 65 62 62 62 66 67 69 71 74 80 85 89 90 92 91 89 88 86 83 82 80 86 94 95 94 90 92 92 97 97 95
27 37 44 59 53 38 59 48 40 42 34 38 31 26 29 47 66 61 60 64 63 63 64 67 71 72 76 80 82 87 90 91 92 88 88 88 86 86 84 85 94 95 92 92 92 93 93 97 94
28 34 35 23 32 28 49 43 36 36 33 31 29 26 30 52 68 65 61 64 65 65 64 65 73 73 76 80 81 84 86 89 92 91 91 89 88 88 82 92 95 96 94 91 88 92 93 92 94
29 30 34 22 27 30 36 35 26 31 26 26 27 28 32 57 68 67 59 64 65 67 66 71 74 75 75 78 80 83 84 89 90 91 88 88 90 88 84 90 93 93 94 91 93 97 92 93 98
32 31 30 36 64 49 39 35 36 31 27 28 28 32 38 57 67 67 61 67 68 66 66 72 75 75 75 78 81 82 85 86 88 88 86 86 84 74 79 88 92 94 94 93 91 94 93 90 91
30 28 26 41 36 33 36 33 28 31 29 28 30 35 38 49 66 66 67 70 70 68 68 74 75 76 77 79 79 77 84 86 86 88 88 85 82 81 83 85 88 92 94 94 93 92 88 85 93
26 28 39 41 46 53 40 28 31 26 29 27 28 33 37 42 67 69 72 72 71 72 72 75 78 77 78 79 78 79 81 86 86 86 88 88 84 80 81 84 80 89 92 94 94 91 87 89 91
31 28 34 63 44 68 79 41 43 26 27 29 28 28 36 39 64 69 73 74 77 74 75 78 81 80 79 80 79 77 79 86 89 88 88 88 85 80 79 83 79 80 89 92 87 87 89 91 88
Wind_Speed
2 5 3 5 5 6 2 1 1 3 4 4 1 8 8 4 4 3 3 7 6 6 6 8 15 15 16 17 18 17 16 17 16 17 19 18 19 18 20 20 21 22 21 20 19 19 21 22 20
4 3 5 3 6 3 2 1 3 2 6 7 6 3 6 3 2 3 4 7 6 6 6 8 15 16 16 17 17 17 15 15 17 17 17 18 17 18 20 19 18 20 20 21 19 19 18 20 20
4 3 4 5 4 3 2 2 5 4 5 1 5 5 3 2 2 3 4 4 7 9 8 9 15 16 17 17 16 15 16 16 15 14 16 17 18 18 18 18 18 18 19 19 19 20 20 17 18
2 4 5 6 3 2 1 4 7 7 4 6 4 7 4 3 2 1 2 5 7 7 7 10 15 16 17 17 15 14 14 15 14 14 15 15 15 16 17 18 18 18 18 19 18 19 20 20 20
4 4 5 5 3 2 2 3 1 4 3 4 1 4 4 4 4 4 6 6 7 6 7 8 17 17 17 16 15 15 14 12 13 13 14 16 17 16 19 18 17 16 19 19 19 19 21 22 19
5 4 4 2 3 2 2 2 3 4 2 2 5 4 3 1 3 4 6 6 6 6 6 7 14 17 17 17 15 15 15 15 15 16 16 17 19 19 18 17 17 16 19 19 17 20 19 22 22
6 4 2 4 6 3 4 2 4 4 2 4 5 4 3 2 3 5 5 6 6 6 6 6 6 10 14 16 16 15 15 16 16 16 17 18 19 18 18 18 17 19 20 20 19 19 20 20 20
5 6 4 2 5 4 4 3 2 4 2 2 2 4 3 2 4 4 5 6 6 6 6 6 6 6 7 6 16 15 14 15 16 18 19 18 18 18 18 17 18 21 22 21 19 18 20 21 21
2 6 2 6 6 5 4 4 2 1 6 4 3 4 5 4 4 5 6 6 6 6 6 6 6 6 6 5 8 11 14 15 16 14 17 11 5 8 10 17 20 21 22 22 23 21 19 21 21
6 4 2 2 3 5 3 3 5 4 3 4 5 5 5 5 5 6 4 4 4 5 6 5 5 6 6 5 5 5 6 4 5 6 6 5 6 7 12 14 18 19 20 19 20 20 20 17 6
3 4 2 6 5 7 5 4 2 8 1 5 7 6 4 3 6 5 2 2 2 3 3 5 5 5 5 4 3 3 3 3 4 6 5 4 5 4 4 3 4 4 12 4 8 8 6 8 7
7 5 3 3 3 5 5 6 4 2 2 6 8 6 4 5 3 1 2 3 4 4 4 5 5 5 5 3 3 4 4 3 4 4 6 4 3 4 4 3 5 4 4 6 5 5 8 7 8
5 2 5 5 8 6 6 4 5 4 5 7 8 7 7 5 2 1 1 3 3 5 6 6 5 6 4 5 4 4 4 3 4 4 5 4 4 5 4 5 5 5 5 5 5 5 7 10 11
3 7 4 4 3 4 5 3 1 5 5 7 7 6 5 5 3 1 3 3 4 5 6 6 5 5 5 4 5 4 4 4 4 4 5 6 5 4 5 6 6 6 5 5 5 6 6 7 9
4 5 3 1 2 2 6 1 5 6 6 8 6 5 4 3 3 2 2 2 2 3 5 6 5 6 6 6 5 4 4 4 4 4 6 7 6 6 6 6 6 6 6 7 6 6 5 6 7
4 4 2 2 4 2 2 5 3 7 10 7 5 4 4 2 2 1 2 1 3 4 5 6 5 6 7 6 5 4 4 4 4 4 5 7 8 7 6 5 6 6 6 6 6 6 6 7 7
5 1 2 2 6 4 2 3 4 6 7 7 6 5 4 3 2 1 1 0 3 4 5 6 6 6 7 6 5 5 6 4 4 4 4 7 8 8 6 6 7 8 6 6 6 7 7 8 8
2 1 3 4 4 3 4 7 2 6 7 9 7 5 5 5 4 2 2 2 4 4 4 5 5 6 6 4 5 4 4 4 4 4 4 7 6 7 6 6 8 8 6 7 7 7 8 5 8
2 2 3 2 4 5 7 6 6 7 5 7 6 6 6 6 3 2 1 4 5 3 6 5 6 6 3 2 3 3 3 3 4 4 7 7 6 8 8 6 8 8 6 8 10 6 7 5 7
2 2 3 1 2 5 1 8 5 6 6 7 9 8 7 3 3 2 1 3 2 4 5 6 6 5 3 2 2 2 3 4 3 4 6 7 8 8 8 8 7 7 5 7 6 6 5 5 6
1 2 2 2 1 1 6 5 1 1 2 4 4 5 5 6 6 4 3 2 2 4 5 5 6 5 4 5 3 4 3 3 3 6 5 7 7 8 9 8 7 7 4 5 6 6 7 7 7
2 1 1 1 4 3 3 6 2 2 5 4 6 7 7 6 4 3 2 3 3 3 4 4 5 4 4 5 3 4 2 3 3 3 4 6 7 7 8 9 8 8 7 7 6 6 7 7 8
1 2 2 2 3 3 1 3 5 1 6 9 9 9 7 7 6 6 5 4 2 2 3 3 4 4 4 4 2 3 4 3 3 4 7 6 7 7 8 8 8 8 7 8 9 9 7 6 3
3 3 5 4 3 3 0 3 6 5 7 2 5 8 8 7 7 6 5 2 2 2 3 3 4 3 5 4 4 4 5 6 5 5 5 5 5 5 6 9 7 7 7 8 7 8 8 7 7
4 5 5 4 5 5 2 2 10 4 6 5 9 9 9 8 6 6 6 4 2 3 3 2 3 4 4 4 4 5 5 5 6 6 4 6 5 4 7 7 7 6 7 8 8 7 7 7 7
2 5 6 3 2 6 0 6 4 1 3 2 6 7 7 7 7 7 6 4 2 1 1 1 3 4 5 5 5 5 5 3 4 4 4 4 3 5 5 7 6 7 7 7 6 4 5 6 5
3 2 3 7 1 2 3 7 2 2 3 3 6 6 8 8 7 7 6 5 3 3 3 2 3 3 4 4 4 5 5 5 5 6 4 4 5 5 7 7 7 7 6 6 7 5 6 6 6
1 5 3 4 1 4 6 6 7 6 9 8 8 10 9 7 7 7 6 6 4 4 3 2 2 3 4 4 3 3 5 4 5 5 6 6 6 6 6 7 6 6 6 6 5 5 7 7 6
2 1 6 5 3 6 3 9 7 8 9 13 12 10 10 9 8 7 6 5 4 3 3 3 2 3 4 4 4 4 5 5 5 5 5 6 6 6 6 7 8 6 7 7 6 6 6 6 7
1 4 5 7 4 2 4 11 3 6 5 8 9 10 9 8 8 7 7 6 6 5 3 3 2 3 4 4 4 4 4 4 5 6 6 6 6 6 6 6 8 8 6 7 6 6 6 6 8
Wind_Direction
41 91 74 48 64 68 103 70 103 89 70 352 27 79 110 62 47 129 148 14 49 35 354 349 13 1 359 355 350 343 342 359 1 356 360 358 352 351 354 349 349 343 338 340 338 332 326 315 310
110 104 46 77 83 76 265 28 75 32 131 145 76 65 49 80 58 85 52 356 43 29 3 339 10 5 1 359 353 346 347 354 355 346 0 352 347 352 350 345 344 344 335 334 332 333 331 320 318
124 56 80 87 84 128 159 109 112 90 126 116 97 56 88 28 46 72 325 28 40 25 5 340 12 9 4 358 354 356 352 358 351 351 1 353 348 355 354 347 344 342 343 335 332 326 333 320 316
164 20 38 76 85 15 57 154 126 130 85 57 114 71 64 43 62 68 57 52 64 31 7 358 19 12 4 357 355 352 358 359 355 359 357 353 360 358 351 353 344 345 337 337 337 327 325 329 329
40 60 64 71 99 83 18 70 224 78 87 14 57 139 81 46 97 65 49 45 62 40 20 7 19 13 8 6 8 6 2 356 2 4 356 352 355 353 343 347 342 343 334 334 337 337 330 316 324
45 90 68 160 136 98 75 34 82 75 88 129 74 94 81 63 77 37 51 59 55 60 30 27 20 17 14 10 6 8 6 10 5 2 2 1 355 349 348 339 346 334 337 331 334 330 331 324 320
104 77 119 111 148 159 153 88 68 103 79 35 136 86 146 84 107 67 63 62 53 46 39 22 14 13 7 5 4 7 2 7 6 5 355 358 356 348 350 351 345 341 337 332 335 333 330 323 326
98 92 104 128 179 189 146 82 104 81 112 101 73 142 173 150 105 72 55 50 47 35 29 14 9 4 355 3 1 12 15 18 11 3 354 1 5 356 345 348 337 342 339 333 325 332 326 328 324
73 65 130 179 161 144 161 116 35 38 94 60 30 102 112 94 74 45 24 12 13 16 20 14 8 2 356 26 11 22 18 18 11 11 2 4 351 343 349 346 340 341 336 330 334 323 326 330 338
63 86 167 29 125 142 116 106 142 100 95 63 68 62 75 62 66 64 44 14 7 2 351 15 9 4 5 21 15 4 5 358 354 359 359 355 342 337 350 346 343 345 335 339 333 333 328 329 312
22 108 113 12 87 109 120 92 82 123 151 191 173 156 123 84 60 64 24 7 346 332 353 355 357 7 19 7 11 357 354 3 348 353 349 340 347 336 326 321 316 313 325 311 320 307 308 306 306
88 35 78 119 107 95 114 119 80 55 90 123 133 138 112 118 108 92 7 13 7 358 346 343 357 10 10 3 5 0 1 2 349 333 333 340 328 325 321 313 309 301 305 304 300 307 299 280 288
76 118 49 78 82 78 106 73 130 117 118 96 109 97 121 142 152 233 360 37 9 5 343 347 353 4 0 12 358 357 352 346 329 325 316 334 327 325 316 308 311 307 307 296 302 299 314 299 313
62 87 104 37 79 98 107 114 72 203 131 108 111 116 139 150 183 101 41 32 14 343 350 335 356 4 3 4 353 334 331 327 327 317 312 316 315 313 312 315 311 303 295 295 303 299 302 310 311
113 77 58 94 164 123 128 259 227 139 124 128 126 137 136 130 93 55 28 74 354 329 332 343 338 4 6 352 331 326 309 319 314 306 311 311 311 307 305 303 300 294 299 299 304 291 285 312 304
71 69 44 214 156 149 80 271 164 154 131 153 155 159 155 170 174 50 73 75 8 357 340 321 344 351 354 341 330 325 316 315 306 305 306 305 305 302 301 299 296 297 300 294 290 296 307 307 299
18 205 229 286 199 134 154 260 165 164 149 172 185 183 180 190 192 118 105 78 351 344 332 341 348 348 339 336 334 328 331 330 318 317 316 316 316 311 311 305 299 305 303 302 294 303 307 305 306
252 227 258 252 205 155 188 252 189 182 161 188 182 193 203 205 221 143 76 7 334 346 343 346 345 347 346 336 331 341 338 332 330 330 320 317 313 314 312 309 306 310 308 307 305 299 304 287 289
130 187 240 221 166 154 216 271 221 192 170 183 185 202 221 214 191 136 54 345 342 359 350 346 337 337 360 332 332 324 318 314 327 333 325 323 319 323 321 318 318 319 307 298 299 308 306 302 300
169 231 265 340 134 173 173 256 255 177 211 183 186 206 218 207 201 217 292 354 350 313 318 336 340 343 338 336 316 283 290 296 286 304 314 332 334 321 322 322 320 333 327 308 319 309 310 285 299
162 202 238 246 37 208 331 295 299 212 144 142 187 193 202 201 211 224 256 319 322 321 322 333 329 338 338 351 336 333 332 318 325 341 330 325 315 321 323 316 331 320 318 307 304 301 292 303 310
315 91 97 97 52 275 29 288 288 248 234 212 201 199 208 208 185 210 239 295 303 299 320 329 335 349 348 354 5 3 323 311 286 285 300 315 318 316 326 328 336 331 333 330 315 308 303 292 310
200 58 60 67 92 32 1 71 261 327 262 232 215 218 220 220 204 219 232 249 293 322 324 324 335 2 353 357 349 353 337 285 292 311 328 320 321 327 331 333 330 338 334 328 336 342 324 310 315
132 75 49 56 76 7 146 117 275 200 213 255 187 209 203 208 213 225 236 230 259 323 4 1 1 341 353 351 347 354 331 323 328 329 331 326 321 315 327 337 333 330 338 333 333 331 340 354 348
76 55 342 351 10 233 140 50 245 237 222 215 196 192 195 204 199 212 221 220 245 2 348 324 1 332 333 335 346 344 328 324 319 321 318 328 327 319 326 330 332 330 330 336 339 341 339 354 349
129 135 147 280 298 285 315 245 257 241 129 73 172 164 174 195 202 213 209 192 215 267 277 296 340 333 335 335 319 330 329 315 306 308 315 308 297 304 303 322 328 328 326 333 329 327 337 341 346
157 112 165 103 24 6 250 288 269 106 172 151 168 159 195 202 206 212 203 187 197 239 259 288 315 312 318 326 313 317 329 334 320 314 300 303 306 319 328 323 330 327 322 331 335 340 336 345 351
138 151 75 22 110 294 292 281 248 231 224 210 211 206 211 209 205 204 202 198 209 223 235 249 266 278 292 308 323 313 308 314 310 316 323 314 310 324 325 328 325 327 326 329 339 333 341 353 341
107 100 53 113 110 165 306 275 209 206 198 198 213 204 202 203 200 198 203 205 202 220 230 251 296 306 316 328 318 325 327 321 326 315 314 308 307 326 329 327 322 325 331 333 339 333 347 347 337
164 171 145 117 228 60 142 272 190 213 206 193 200 203 199 201 195 193 193 193 202 220 232 237 265 286 292 297 297 304 304 318 327 319 314 315 315 317 314 326 330 335 330 327 343 338 347 348 344